This demonstration page uses our WeatherBlox Daily Observations layout. Learn more.

Left ArrowRight Arrow

Hourly Observations for July 30, 2020

Temp ( °F °C ) Dew Point ( °F °C ) Humidity (%) Winds ( mph kmh ) Pressure ( in mb ) Visibility ( mi km ) Precip ( " mm )
12:53 am 00:53 Clear 75 23.9 47 8.3 37 37 N 3 6 29.84 1011 10 16 0.00 0.00
1:53 am 01:53 Clear 70 21.1 47 8.3 44 44 NW 5 7 29.85 1011 10 16 0.00 0.00
2:53 am 02:53 Clear 70 21.1 48 8.9 46 46 N 5 7 29.85 1011 10 16 0.00 0.00
3:53 am 03:53 Clear 69 20.6 46 7.8 44 44 Calm 29.86 1011 10 16 0.00 0.00
4:53 am 04:53 Clear 65 18.3 48 8.9 54 54 NW 3 6 29.86 1011 10 16 0.00 0.00
5:53 am 05:53 Clear 63 17.2 48 8.9 58 58 Calm 29.88 1012 10 16 0.00 0.00
6:53 am 06:53 Sunny 67 19.4 50 10 55 55 Calm 29.90 1013 10 16 0.00 0.00
7:53 am 07:53 Sunny 74 23.3 49 9.4 41 41 N 5 7 29.91 1013 10 16 0.00 0.00
8:53 am 08:53 Sunny 80 26.7 47 8.3 31 31 N 5 7 29.92 1013 10 16 0.00 0.00
9:53 am 09:53 Sunny 85 29.4 49 9.4 29 29 WNW 3 6 29.91 1013 10 16 0.00 0.00
10:53 am 10:53 Sunny 89 31.7 49 9.4 25 25 W 5 7 29.91 1013 10 16 0.00 0.00
11:53 am 11:53 Sunny 93 33.9 47 8.3 21 21 Calm 29.91 1013 10 16 0.00 0.00
12:53 pm 12:53 Sunny 96 35.6 38 3.3 13 13 undefined N/A 29.90 1012 10 16 0.00 0.00
1:53 pm 13:53 Sunny 97 36.1 41 5 14 14 SSE 10 17 29.88 1012 10 16 0.00 0.00
2:53 pm 14:53 Sunny 99 37.2 40 4.4 13 13 S 8 13 29.87 1012 10 16 0.00 0.00
3:53 pm 15:53 Sunny 100 37.8 42 5.6 14 14 S 15 24 29.85 1011 10 16 0.00 0.00
4:53 pm 16:53 Sunny 101 38.3 42 5.6 13 13 S 15 24 29.85 1011 10 16 0.00 0.00
5:53 pm 17:53 Sunny 101 38.3 40 4.4 12 12 SSE 20 31 29.84 1010 10 16 0.00 0.00
6:53 pm 18:53 Sunny 99 37.2 41 5 14 14 SSE 14 22 29.84 1010 10 16 0.00 0.00
7:53 pm 19:53 Sunny 94 34.4 41 5 16 16 SSE 8 13 29.84 1011 10 16 0.00 0.00
8:53 pm 20:53 Clear 89 31.7 43 6.1 20 20 S 5 7 29.85 1011 10 16 0.00 0.00
9:53 pm 21:53 Clear 87 30.6 47 8.3 25 25 S 5 7 29.86 1011 10 16 0.00 0.00
10:53 pm 22:53 Clear 78 25.6 45 7.2 31 31 N 7 11 29.87 1012 10 16 0.00 0.00
11:53 pm 23:53 Clear 78 25.6 46 7.8 32 32 NE 3 6 29.88 1012 10 16 0.00 0.00

Powered by Vaisala Xweather